User: anonymous   Login
Location: Austin, TX
(30.3000°N, 97.7500°W)
Time: 08:21:10
(UTC-06:00)
Language:

Cosmos 2082 Rocket - Orbit

View from above orbital plane
View from above orbital plane
View from above satellite
View from above satellite

Ground track
Ground track

The orbit data is extracted from the following two-line orbital elements,

1 20625U 90046B   16341.80116788 -.00000291  00000-0 -12652-3 0  9991
2 20625  70.9973 192.9152 0012886  31.3458 328.8430 14.14606285370634
Epoch (UTC): 06 December 2016 19:13:40
Eccentricity: 0.0012886
inclination: 70.9973°
perigee height: 834 km
apogee height: 853 km
right ascension of ascending node: 192.9152°
argument of perigee: 31.3458°
revolutions per day: 14.14606285
mean anomaly at epoch: 328.8430°
orbit number at epoch: 37063

The dashed part of the orbit path shows where the satellite is in the earth's shadow,  

DLR